User: anonymous   Login
Location: Unspecified
(0.0000°N, 0.0000°E)
Time: 21:18:26
(UTC+00:00)
Language:

METEOR M2-2 - Orbit

View from above orbital plane
View from above orbital plane
View from above satellite
View from above satellite

Ground track
Ground track

The orbit data is extracted from the following two-line orbital elements,

1 44387U 19038A   20216.52495368 -.00000042  00000-0  57517-6 0  9998
2 44387  98.6233 175.6415 0002488  90.3308 269.8156 14.23680125 56238
Epoch (UTC): 03 August 2020 12:35:55
Eccentricity: 0.0002488
inclination: 98.6233°
perigee height: 811 km
apogee height: 815 km
right ascension of ascending node: 175.6415°
argument of perigee: 90.3308°
revolutions per day: 14.23680125
mean anomaly at epoch: 269.8156°
orbit number at epoch: 5623

The dashed part of the orbit path shows where the satellite is in the earth's shadow,  

DLR